"2016-06-08 00:00:00",1703451,2.029,20.13,3.62,0.488,23.32,108.5831,21.26,22.12,26.18,0,110.9,13.08,22.08,342.1
"2016-06-08 00:00:30",1703452,2.047,20.08,4.085,0.529,23.32,108.5825,21.25,22.15,26.28,0,110.9,13.08,22.08,342.1
"2016-06-08 00:01:00",1703453,1.91,21.7,2.412,0.2,23.27,108.59,21.27,22.16,26.28,0,110.9,13.08,22.10,343.7
"2016-06-08 00:01:30",1703454,2.109,29.03,2.592,0.28,23.31,108.6071,21.32,22.16,26.18,0,110.9,13.08,22.14,351.0
"2016-06-08 00:02:00",1703455,2.204,27.37,2.403,0.287,23.3,108.6178,21.34,22.21,25.79,0,110.9,13.08,22.17,349.4
"2016-06-08 00:02:30",1703456,2.179,27.84,2.114,0.251,23.33,108.6184,21.35,22.24,25.61,0,110.9,13.08,22.17,349.8
"2016-06-08 00:03:00",1703457,2.277,29.4,2.492,0.24,23.37,108.6177,21.34,22.26,25.23,0,110.9,13.08,22.17,351.4
"2016-06-08 00:03:30",1703458,2.394,27.68,2.275,0.209,23.36,108.6394,21.4,22.27,24.98,0,110.9,13.08,22.23,349.7
"2016-06-08 00:04:00",1703459,2.462,28.34,2.527,0.284,23.16,108.6503,21.43,22.31,25.16,0,111,13.08,22.26,350.3
"2016-06-08 00:04:30",1703460,2.177,32.27,1.99,0.351,23.16,108.6524,21.43,22.34,25.31,0,111,13.07,22.26,354.3
"2016-06-08 00:05:00",1703461,2.668,41.11,2.956,0.257,23.22,108.666,21.47,22.35,25.13,0,111,13.07,22.30,3.1
"2016-06-08 00:05:30",1703462,2.579,41.41,1.189,0.271,23.28,108.6801,21.5,22.38,24.9,0,110.9,13.07,22.33,3.4
"2016-06-08 00:06:00",1703463,2.47,39.22,3.509,0.363,23.27,108.6868,21.52,22.4,24.73,0,111,13.07,22.35,1.2
"2016-06-08 00:06:30",1703464,1.824,34.66,3.69,0.275,23.24,108.6846,21.52,22.42,24.74,0,110.9,13.07,22.34,356.7
"2016-06-08 00:07:00",1703465,2.226,40.35,2.963,0.21,23.22,108.7014,21.56,22.46,24.82,0,110.9,13.07,22.39,2.3
"2016-06-08 00:07:30",1703466,2.741,40.5,2.756,0.359,23.24,108.7166,21.6,22.48,24.6,0,111,13.07,22.43,2.5
"2016-06-08 00:08:00",1703467,3.228,43.05,3.276,0.394,23.22,108.7169,21.6,22.51,24.41,0,110.9,13.07,22.43,5.0
"2016-06-08 00:08:30",1703468,3.045,54.04,2.045,0.46,23.31,108.722,21.61,22.52,24.39,0,111,13.07,22.44,16.0
"2016-06-08 00:09:00",1703469,2.437,51.6,2.49,0.092,23.29,108.7438,21.67,22.55,24.26,0,110.9,13.07,22.50,13.6
"2016-06-08 00:09:30",1703470,2.63,49.67,1.78,0.106,23.31,108.7509,21.69,22.59,24.2,0,111,13.07,22.51,11.7
"2016-06-08 00:10:00",1703471,2.429,52.65,2.91,0.145,23.29,108.7503,21.69,22.58,24.01,0,110.9,13.07,22.51,14.7
"2016-06-08 00:10:30",1703472,2.164,47.83,3.53,0.223,23.21,108.7556,21.7,22.62,24.03,0,111,13.07,22.53,9.8
"2016-06-08 00:11:00",1703473,2.336,44.15,1.637,0.1,23.21,108.777,21.75,22.64,23.9,0,111,13.07,22.58,6.2
"2016-06-08 00:11:30",1703474,2.22,42.03,1.398,0.097,23.24,108.7829,21.77,22.67,23.94,0,111,13.07,22.60,4.0
"2016-06-08 00:12:00",1703475,2.268,43.97,2.147,0.103,23.15,108.7834,21.77,22.69,24.05,0,111,13.08,22.60,6.0
"2016-06-08 00:12:30",1703476,2.095,54.5,7.643,0.138,23.31,108.7857,21.78,22.71,24.07,0,111,13.08,22.60,16.5
"2016-06-08 00:13:00",1703477,1.637,57.07,3.746,0.142,23.28,108.8013,21.82,22.72,23.63,0,111,13.08,22.64,19.1
"2016-06-08 00:13:30",1703478,1.288,55.4,5.673,0.086,23.25,108.8148,21.85,22.75,23.75,0,111,13.08,22.68,17.4
"2016-06-08 00:14:00",1703479,1.088,49.33,10.12,0.133,23.16,108.8141,21.85,22.77,23.7,0,111,13.08,22.68,11.3
"2016-06-08 00:14:30",1703480,0.951,35.97,7.026,0.269,23.13,108.8154,21.85,22.78,23.98,0,111,13.08,22.68,358.0
"2016-06-08 00:15:00",1703481,0.705,37.36,3.328,0.112,23.24,108.8153,21.85,22.8,23.59,0,111,13.08,22.68,359.4
"2016-06-08 00:15:30",1703482,0.414,21.69,12.3,0.213,23.18,108.8356,21.9,22.81,23.39,0,111,13.08,22.73,343.7
"2016-06-08 00:16:00",1703483,0.641,355.7,10.55,0.285,22.62,108.8457,21.93,22.84,25.57,0,111,13.08,22.76,317.7
"2016-06-08 00:16:30",1703484,1.394,330.2,17.36,0.401,21.99,108.8351,21.9,22.85,28.17,0,111,13.08,22.73,292.2
"2016-06-08 00:17:00",1703485,1.656,310.1,3.824,0.205,21.92,108.8135,21.85,22.85,29.5,0,111,13.08,22.68,272.1
"2016-06-08 00:17:30",1703486,2.005,305.5,7.91,0.119,21.78,108.8123,21.84,22.85,30.04,0,111,13.07,22.67,267.5
"2016-06-08 00:18:00",1703487,2.431,293.1,8.04,0.203,21.75,108.8123,21.84,22.84,31.45,0,111,13.07,22.67,255.1
"2016-06-08 00:18:30",1703488,2.445,286.6,3.831,0.242,21.85,108.8092,21.84,22.86,31.95,0,111,13.08,22.66,248.6
"2016-06-08 00:19:00",1703489,2.803,296.3,9.41,0.377,21.95,108.8086,21.83,22.85,31.99,0,111,13.08,22.66,258.3
"2016-06-08 00:19:30",1703490,3.496,283,4.886,0.308,22.02,108.8099,21.84,22.85,32.2,0,111,13.07,22.67,245.0
"2016-06-08 00:20:00",1703491,3.473,287.6,3.097,0.15,22.1,108.8086,21.83,22.85,32.65,0,111,13.07,22.66,249.6
"2016-06-08 00:20:30",1703492,3.206,290.7,4.014,0.199,22.24,108.807,21.83,22.86,32.58,0,111,13.08,22.66,252.7
"2016-06-08 00:21:00",1703493,2.841,290.8,3.643,0.121,22.45,108.7848,21.77,22.84,31.33,0,111,13.08,22.60,252.8
"2016-06-08 00:21:30",1703494,2.483,292.9,1.968,0.193,23.06,108.7755,21.75,22.81,28.65,0,111,13.08,22.58,254.9
"2016-06-08 00:22:00",1703495,2.873,289,1.732,0.263,23.2,108.7707,21.74,22.8,27.32,0,111,13.07,22.57,251.0
"2016-06-08 00:22:30",1703496,2.829,282.5,2.034,0.147,23.36,108.7443,21.67,22.77,26.93,0,111,13.07,22.50,244.5
"2016-06-08 00:23:00",1703497,2.859,282,2.37,0.183,23.36,108.7427,21.67,22.76,26.25,0,111,13.07,22.49,244.0
"2016-06-08 00:23:30",1703498,3.003,280.8,2.45,0.121,23.27,108.7421,21.66,22.75,26.11,0,111,13.07,22.49,242.8
"2016-06-08 00:24:00",1703499,3.081,279,1.695,0.203,23.26,108.7322,21.64,22.72,26.07,0,111,13.07,22.47,241.0
"2016-06-08 00:24:30",1703500,3.061,279.2,3.564,0.244,23.14,108.7126,21.59,22.71,26.14,0,111,13.07,22.42,241.2
"2016-06-08 00:25:00",1703501,2.892,267.6,1.949,0.217,23.34,108.7077,21.58,22.69,25.98,0,111,13.07,22.40,229.6
"2016-06-08 00:25:30",1703502,3.206,276.4,4.886,0.318,23.1,108.7092,21.58,22.65,25.78,0,111,13.07,22.41,238.4
"2016-06-08 00:26:00",1703503,3.495,281.3,2.745,0.176,23.03,108.7086,21.58,22.65,26.42,0,111,13.07,22.41,243.3
"2016-06-08 00:26:30",1703504,4.175,277.7,1.788,0.243,22.93,108.7101,21.58,22.64,27.12,0,111,13.07,22.41,239.7
"2016-06-08 00:27:00",1703505,4.388,276.2,3.193,0.22,22.85,108.7098,21.58,22.63,27.97,0,111,13.07,22.41,238.2
"2016-06-08 00:27:30",1703506,4.189,272.3,2.938,0.205,22.99,108.708,21.58,22.62,28.4,0,111,13.07,22.40,234.3
"2016-06-08 00:28:00",1703507,4.273,268.8,2.551,0.205,23.03,108.7052,21.57,22.62,28.55,0,111,13.07,22.40,230.8
"2016-06-08 00:28:30",1703508,4.273,268.5,2.578,0.274,23.1,108.7011,21.56,22.6,27.98,0,111,13.07,22.39,230.5
"2016-06-08 00:29:00",1703509,3.943,281.3,3.914,0.272,22.96,108.6999,21.56,22.59,27.98,0,111,13.08,22.38,243.3
"2016-06-08 00:29:30",1703510,4.134,291.2,2.344,0.161,22.44,108.6974,21.55,22.58,28.32,0,111,13.08,22.38,253.2
"2016-06-08 00:30:00",1703511,4.443,296.6,3.176,0.238,22.14,108.6948,21.54,22.57,29.65,0,111,13.07,22.37,258.6
"2016-06-08 00:30:30",1703512,4.488,303,2.092,0.37,22.17,108.6882,21.53,22.57,30,0,111,13.08,22.35,265.0
"2016-06-08 00:31:00",1703513,5.068,297.4,2.146,0.127,22.09,108.6791,21.5,22.58,31.1,0,111,13.08,22.33,259.4
"2016-06-08 00:31:30",1703514,5.12,304.6,2.857,0.131,22.18,108.6746,21.49,22.58,31.09,0,111,13.08,22.32,266.6
"2016-06-08 00:32:00",1703515,5.439,309,1.406,0.131,22.22,108.6752,21.49,22.56,31.25,0,111,13.08,22.32,271.0
"2016-06-08 00:32:30",1703516,5.348,316.2,3.82,0.242,22.3,108.6755,21.49,22.56,31.67,0,111,13.08,22.32,278.2
"2016-06-08 00:33:00",1703517,4.991,314.5,2.094,0.096,22.29,108.6693,21.48,22.54,31.85,0,111,13.08,22.30,276.5
"2016-06-08 00:33:30",1703518,5.13,318.7,1.89,0.12,22.4,108.6522,21.43,22.53,31.64,0,111,13.08,22.26,280.7
"2016-06-08 00:34:00",1703519,4.744,317.8,2.159,0.185,22.62,108.6429,21.41,22.51,30.46,0,111,13.08,22.24,279.8
"2016-06-08 00:34:30",1703520,4.685,323.9,2.389,0.145,22.56,108.641,21.4,22.49,30.05,0,111,13.08,22.23,285.9
"2016-06-08 00:35:00",1703521,4.612,326.4,1.47,0.134,22.63,108.6139,21.33,22.46,30.33,0,111,13.08,22.16,288.4
"2016-06-08 00:35:30",1703522,4.652,326.6,1.229,0.096,22.55,108.6132,21.33,22.44,30.29,0,111,13.08,22.16,288.6
"2016-06-08 00:36:00",1703523,4.861,321.2,2.259,0.287,22.56,108.6109,21.33,22.42,30.58,0,111,13.08,22.15,283.2
"2016-06-08 00:36:30",1703524,5.363,319.2,1.604,0.123,22.31,108.5978,21.29,22.38,31.93,0,111,13.08,22.12,281.2
"2016-06-08 00:37:00",1703525,5.765,314.4,4.423,0.17,22.32,108.5818,21.25,22.38,32.3,0,111,13.08,22.08,276.4
"2016-06-08 00:37:30",1703526,6.023,300,3.838,0.346,22.34,108.5794,21.25,22.35,32.87,0,111,13.08,22.07,262.0
"2016-06-08 00:38:00",1703527,6.722,289.1,3.187,0.277,22.29,108.5714,21.23,22.32,33.9,0,111,13.08,22.05,251.1
"2016-06-08 00:38:30",1703528,6.743,283.2,5.224,0.362,22.27,108.5478,21.17,22.29,36.04,0,111,13.08,21.99,245.2
"2016-06-08 00:39:00",1703529,6.33,284.7,5.682,0.338,22.33,108.5462,21.16,22.28,35.14,0,111,13.07,21.99,246.7
"2016-06-08 00:39:30",1703530,6.457,290.3,4.168,0.209,22.37,108.5203,21.09,22.25,35.4,0,111,13.07,21.92,252.3
"2016-06-08 00:40:00",1703531,6.332,292.1,1.519,0.373,22.42,108.5113,21.07,22.22,34.24,0,111,13.07,21.90,254.1
"2016-06-08 00:40:30",1703532,6.25,296.9,3.72,0.254,22.56,108.4852,21,22.19,32.49,0,111,13.07,21.83,258.9
"2016-06-08 00:41:00",1703533,5.853,293,1.023,0.21,22.41,108.4793,20.99,22.15,36.1,0,111,13.07,21.81,255.0
"2016-06-08 00:41:30",1703534,5.207,294.7,3.665,0.254,22.6,108.4535,20.92,22.11,35.72,0,111,13.07,21.75,256.7
"2016-06-08 00:42:00",1703535,4.876,302.9,3.099,0.207,22.51,108.4508,20.92,22.07,35.81,0,111,13.07,21.74,264.9
"2016-06-08 00:42:30",1703536,4.615,305.6,3.624,0.256,22.6,108.4282,20.86,22.04,33.81,0,111,13.07,21.68,267.6
"2016-06-08 00:43:00",1703537,4.829,307.9,1.195,0.162,22.84,108.4219,20.84,22,32.27,0,111,13.07,21.67,269.9
"2016-06-08 00:43:30",1703538,4.547,306.6,1.472,0.257,22.99,108.4194,20.84,21.95,30.21,0,111,13.07,21.66,268.6
"2016-06-08 00:44:00",1703539,5.041,307.9,2.066,0.141,22.7,108.4085,20.81,21.93,30.11,0,111,13.07,21.63,269.9
"2016-06-08 00:44:30",1703540,5.019,306.4,1.569,0.157,22.72,108.3927,20.77,21.89,29.88,0,111,13.07,21.59,268.4
"2016-06-08 00:45:00",1703541,4.757,309.4,1.224,0.158,22.51,108.3937,20.77,21.88,30.7,0,111,13.08,21.59,271.4
"2016-06-08 00:45:30",1703542,4.815,310.7,0.792,0.091,22.68,108.3943,20.77,21.85,30.2,0,111,13.08,21.60,272.7
"2016-06-08 00:46:00",1703543,4.702,310.7,2.208,0.191,22.65,108.3899,20.76,21.82,29.73,0,111,13.08,21.58,272.7
"2016-06-08 00:46:30",1703544,4.411,308.2,1.373,0.205,22.67,108.3803,20.74,21.81,29.58,0,111,13.08,21.56,270.2
"2016-06-08 00:47:00",1703545,4.29,312.1,3.458,0.16,22.52,108.3684,20.7,21.79,30.24,0,111,13.08,21.53,274.1
"2016-06-08 00:47:30",1703546,4.621,313.6,3.262,0.368,22.59,108.3678,20.7,21.78,30.52,0,111,13.08,21.53,275.6
"2016-06-08 00:48:00",1703547,4.899,312.4,2.074,0.119,22.59,108.3694,20.71,21.76,30.78,0,111,13.08,21.53,274.4
"2016-06-08 00:48:30",1703548,4.83,310.5,2.066,0.141,22.59,108.3715,20.71,21.77,30.9,0,111,13.09,21.54,272.5
"2016-06-08 00:49:00",1703549,4.794,314.2,2.889,0.238,22.67,108.3712,20.71,21.75,30.27,0,111,13.09,21.54,276.2
"2016-06-08 00:49:30",1703550,4.679,313.1,3.446,0.268,22.55,108.3718,20.71,21.75,31.11,0,111,13.09,21.54,275.1
"2016-06-08 00:50:00",1703551,4.434,313.7,3.289,0.21,22.49,108.3721,20.71,21.72,31.36,0,111,13.09,21.54,275.7
"2016-06-08 00:50:30",1703552,4.543,315.1,4.749,0.349,22.57,108.3727,20.72,21.73,31.75,0,111,13.09,21.54,277.1
"2016-06-08 00:51:00",1703553,4.443,317.4,2.605,0.139,22.8,108.3722,20.71,21.71,29.99,0,110.9,13.09,21.54,279.4
"2016-06-08 00:51:30",1703554,4.861,314.6,1.421,0.36,22.63,108.3693,20.71,21.71,29.67,0,110.9,13.09,21.53,276.6
"2016-06-08 00:52:00",1703555,5.623,314.3,1.732,0.344,22.66,108.3651,20.7,21.7,29.84,0,111,13.09,21.52,276.3
"2016-06-08 00:52:30",1703556,5.758,315.7,5.098,0.397,22.97,108.3643,20.69,21.69,29.04,0,110.9,13.09,21.52,277.7
"2016-06-08 00:53:00",1703557,4.634,311.7,1.825,0.112,23,108.3654,20.7,21.68,29.34,0,111,13.09,21.52,273.7
"2016-06-08 00:53:30",1703558,4.525,317.1,3.97,0.201,22.92,108.3646,20.7,21.67,29.21,0,111,13.09,21.52,279.1
"2016-06-08 00:54:00",1703559,4.618,327.3,3.11,0.312,22.66,108.3665,20.7,21.68,28.76,0,110.9,13.09,21.52,289.3
"2016-06-08 00:54:30",1703560,5.045,324.8,1.37,0.221,22.62,108.3699,20.71,21.67,28.76,0,110.9,13.09,21.53,286.8
"2016-06-08 00:55:00",1703561,4.713,326.4,1.561,0.215,22.57,108.3719,20.71,21.67,29.01,0,110.9,13.09,21.54,288.4
"2016-06-08 00:55:30",1703562,4.885,326.8,1.191,0.125,22.42,108.3724,20.72,21.67,30.17,0,110.9,13.09,21.54,288.8
"2016-06-08 00:56:00",1703563,4.336,315.8,5.037,0.239,22.85,108.3727,20.72,21.69,29.84,0,110.9,13.09,21.54,277.8
"2016-06-08 00:56:30",1703564,4.162,320.8,6.057,0.184,22.92,108.3727,20.72,21.67,29.24,0,110.9,13.08,21.54,282.8
"2016-06-08 00:57:00",1703565,3.86,329.1,2.049,0.284,22.86,108.3727,20.72,21.69,28.76,0,110.9,13.08,21.54,291.1
"2016-06-08 00:57:30",1703566,3.625,325.6,2.182,0.127,22.63,108.3727,20.72,21.67,28.57,0,110.9,13.08,21.54,287.6
"2016-06-08 00:58:00",1703567,3.763,322.3,2.323,0.139,22.79,108.3727,20.72,21.68,28.82,0,110.9,13.07,21.54,284.3
"2016-06-08 00:58:30",1703568,3.819,314.4,2.821,0.185,22.73,108.3727,20.72,21.68,28.78,0,110.9,13.08,21.54,276.4
"2016-06-08 00:59:00",1703569,3.747,309.8,4.323,0.257,22.74,108.3727,20.72,21.69,28.94,0,110.9,13.08,21.54,271.8
"2016-06-08 00:59:30",1703570,3.829,307.7,4.247,0.437,22.67,108.3727,20.72,21.71,28.94,0,110.9,13.08,21.54,269.7
"2016-06-08 01:00:00",1703571,3.821,305.4,4.468,0.366,22.71,108.3727,20.72,21.71,28.95,0,110.9,13.08,21.54,267.4
"2016-06-08 01:00:30",1703572,3.383,297.5,1.774,0.11,22.95,108.3733,20.72,21.71,28.73,0,110.9,13.08,21.54,259.5
"2016-06-08 01:01:00",1703573,3.867,297.5,2.498,0.177,22.94,108.3828,20.74,21.71,28.95,0,110.9,13.08,21.57,259.5
"2016-06-08 01:01:30",1703574,3.881,298.4,2.499,0.152,22.94,108.3958,20.78,21.73,28.79,0,110.9,13.08,21.60,260.4
"2016-06-08 01:02:00",1703575,4.233,296,2.285,0.128,22.9,108.4008,20.79,21.73,28.84,0,110.9,13.08,21.61,258.0
"2016-06-08 01:02:30",1703576,4.088,293.4,2.485,0.135,22.9,108.4062,20.8,21.73,29.33,0,110.9,13.09,21.63,255.4
"2016-06-08 01:03:00",1703577,4.158,292.3,3.73,0.117,22.92,108.4065,20.8,21.75,29.74,0,110.9,13.09,21.63,254.3
"2016-06-08 01:03:30",1703578,3.769,295.2,2.163,0.195,22.89,108.4065,20.8,21.76,29.45,0,110.9,13.09,21.63,257.2
"2016-06-08 01:04:00",1703579,3.791,299.6,3.907,0.378,22.88,108.4065,20.8,21.77,29.4,0,110.9,13.09,21.63,261.6
"2016-06-08 01:04:30",1703580,3.791,299.3,1.792,0.158,22.81,108.407,20.8,21.78,28.79,0,110.9,13.09,21.63,261.3
"2016-06-08 01:05:00",1703581,3.507,294.5,2.577,0.09,22.85,108.4166,20.83,21.78,28.74,0,110.9,13.09,21.65,256.5
"2016-06-08 01:05:30",1703582,3.413,289.2,4.413,0.284,22.89,108.429,20.86,21.79,29.15,0,110.9,13.09,21.69,251.2
"2016-06-08 01:06:00",1703583,3.072,291.8,2.056,0.093,22.84,108.429,20.86,21.81,29.01,0,110.9,13.09,21.69,253.8
"2016-06-08 01:06:30",1703584,3.43,290.8,2.595,0.148,22.68,108.4357,20.88,21.82,28.82,0,110.9,13.09,21.70,252.8
"2016-06-08 01:07:00",1703585,3.507,287.7,2.269,0.134,22.77,108.4402,20.89,21.84,28.7,0,110.9,13.09,21.71,249.7
"2016-06-08 01:07:30",1703586,3.293,292.7,4.257,0.322,22.68,108.4402,20.89,21.83,28.93,0,110.9,13.09,21.71,254.7
"2016-06-08 01:08:00",1703587,3.685,293.1,2.024,0.232,22.64,108.4402,20.89,21.84,29.38,0,110.9,13.09,21.71,255.1
"2016-06-08 01:08:30",1703588,3.705,294.2,1.106,0.097,22.65,108.4402,20.89,21.84,29.5,0,110.9,13.09,21.71,256.2
"2016-06-08 01:09:00",1703589,3.799,294.2,2.365,0.114,22.64,108.4402,20.89,21.87,29.68,0,110.9,13.09,21.71,256.2
"2016-06-08 01:09:30",1703590,3.419,290.8,1.949,0.152,22.68,108.4402,20.89,21.86,29.88,0,110.9,13.09,21.71,252.8
"2016-06-08 01:10:00",1703591,3.313,295.1,2.095,0.057,22.67,108.4402,20.89,21.87,29.93,0,110.9,13.09,21.71,257.1
"2016-06-08 01:10:30",1703592,3.366,299,1.772,0.116,22.64,108.4402,20.89,21.88,29.83,0,110.9,13.09,21.71,261.0
"2016-06-08 01:11:00",1703593,3.427,302.6,2.995,0.104,22.58,108.4402,20.89,21.88,29.71,0,110.9,13.09,21.71,264.6
"2016-06-08 01:11:30",1703594,3.289,304.8,3.107,0.102,22.6,108.4402,20.89,21.88,29.64,0,110.9,13.09,21.71,266.8
"2016-06-08 01:12:00",1703595,3.27,305.5,1.807,0.111,22.56,108.4402,20.89,21.88,29.5,0,110.9,13.09,21.71,267.5
"2016-06-08 01:12:30",1703596,3.469,312.3,2.824,0.108,22.34,108.4402,20.89,21.88,29.49,0,110.9,13.09,21.71,274.3
"2016-06-08 01:13:00",1703597,3.488,310.3,1.749,0.12,22.45,108.4402,20.89,21.88,29.59,0,110.9,13.09,21.71,272.3
"2016-06-08 01:13:30",1703598,3.727,319,3.181,0.169,22.28,108.4402,20.89,21.88,29.73,0,110.9,13.09,21.71,281.0
"2016-06-08 01:14:00",1703599,4.006,324.7,2.874,0.096,22.26,108.44,20.89,21.89,30.03,0,110.9,13.08,21.71,286.7
"2016-06-08 01:14:30",1703600,3.653,325.4,1.899,0.151,22.39,108.4371,20.88,21.89,29.86,0,110.9,13.09,21.71,287.4
"2016-06-08 01:15:00",1703601,3.838,329.1,2.024,0.294,22.4,108.4279,20.86,21.88,29.71,0,110.9,13.08,21.68,291.1
"2016-06-08 01:15:30",1703602,4.088,328,1.461,0.123,22.42,108.4234,20.85,21.86,29.93,0,110.9,13.08,21.67,290.0
"2016-06-08 01:16:00",1703603,4.052,326.6,1.379,0.064,22.37,108.4082,20.81,21.85,30.65,0,110.9,13.08,21.63,288.6
"2016-06-08 01:16:30",1703604,4.091,326.7,0.727,0.055,22.41,108.4065,20.8,21.85,30.72,0,110.9,13.08,21.63,288.7
"2016-06-08 01:17:00",1703605,3.993,324,1.5,0.069,22.5,108.4065,20.8,21.85,30.82,0,110.9,13.08,21.63,286.0
"2016-06-08 01:17:30",1703606,3.865,322.4,0.67,0.104,22.47,108.4062,20.8,21.84,30.94,0,110.9,13.08,21.63,284.4
"2016-06-08 01:18:00",1703607,3.852,320.2,1.449,0.114,22.48,108.3958,20.78,21.83,31.12,0,110.9,13.08,21.60,282.2
"2016-06-08 01:18:30",1703608,3.843,320,0.941,0.126,22.55,108.375,20.72,21.82,30.95,0,110.9,13.08,21.55,282.0
"2016-06-08 01:19:00",1703609,3.877,319.7,1.608,0.176,22.57,108.3727,20.72,21.8,30.71,0,110.9,13.09,21.54,281.7
"2016-06-08 01:19:30",1703610,3.946,316.8,1.196,0.061,22.53,108.3727,20.72,21.78,31.01,0,110.9,13.09,21.54,278.8
"2016-06-08 01:20:00",1703611,3.767,315.9,1.437,0.073,22.64,108.3691,20.71,21.77,30.77,0,110.9,13.09,21.53,277.9
"2016-06-08 01:20:30",1703612,3.845,315,0.796,0.095,22.7,108.3488,20.65,21.76,30.66,0,110.9,13.09,21.48,277.0
"2016-06-08 01:21:00",1703613,3.642,314.8,0.983,0.141,22.6,108.339,20.63,21.73,30.43,0,110.9,13.09,21.45,276.8
"2016-06-08 01:21:30",1703614,3.617,315.6,1.206,0.094,22.55,108.339,20.63,21.71,30.71,0,110.9,13.09,21.45,277.6
"2016-06-08 01:22:00",1703615,3.897,317.1,2.595,0.191,22.48,108.3387,20.63,21.7,31.06,0,110.9,13.09,21.45,279.1
"2016-06-08 01:22:30",1703616,3.911,320.7,0.406,0.066,22.43,108.3277,20.6,21.68,31.65,0,110.9,13.09,21.42,282.7
"2016-06-08 01:23:00",1703617,3.716,321.5,0.546,0.089,22.52,108.308,20.55,21.67,31.98,0,110.9,13.09,21.37,283.5
"2016-06-08 01:23:30",1703618,3.514,320.4,1.985,0.08,22.6,108.3052,20.54,21.64,32.09,0,110.9,13.09,21.37,282.4
"2016-06-08 01:24:00",1703619,3.861,317.3,1.34,0.146,22.51,108.3058,20.54,21.65,32.49,0,110.9,13.09,21.37,279.3
"2016-06-08 01:24:30",1703620,4.149,314.2,0.554,0.146,22.43,108.3052,20.54,21.63,33.14,0,110.9,13.09,21.37,276.2
"2016-06-08 01:25:00",1703621,4.283,313.3,1.007,0.054,22.43,108.2954,20.52,21.6,33.44,0,110.9,13.09,21.34,275.3
"2016-06-08 01:25:30",1703622,4.091,313.7,0.887,0.117,22.33,108.2775,20.47,21.59,33.51,0,110.9,13.09,21.30,275.7
"2016-06-08 01:26:00",1703623,3.879,315.1,0.643,0.061,22.41,108.2733,20.46,21.57,33.16,0,110.9,13.09,21.28,277.1
"2016-06-08 01:26:30",1703624,3.718,317.9,0.6,0.055,22.49,108.2727,20.46,21.56,32.99,0,110.9,13.09,21.28,279.9
"2016-06-08 01:27:00",1703625,3.616,321,2.084,0.101,22.53,108.2723,20.46,21.55,32.6,0,110.9,13.09,21.28,283.0
"2016-06-08 01:27:30",1703626,3.519,322.2,1.242,0.059,22.57,108.26,20.43,21.53,32.44,0,110.9,13.09,21.25,284.2
"2016-06-08 01:28:00",1703627,3.337,325,1.026,0.049,22.65,108.2428,20.38,21.49,32.15,0,110.9,13.09,21.21,287.0
"2016-06-08 01:28:30",1703628,3.289,324.1,1.572,0.049,22.62,108.2441,20.39,21.5,32.2,0,110.9,13.09,21.21,286.1
"2016-06-08 01:29:00",1703629,3.171,324.8,0.811,0.053,22.59,108.248,20.4,21.46,32.13,0,110.9,13.09,21.22,286.8
"2016-06-08 01:29:30",1703630,3.225,320.8,2.392,0.076,22.47,108.2469,20.39,21.48,32.21,0,110.9,13.09,21.22,282.8
"2016-06-08 01:30:00",1703631,3.225,318.4,2.778,0.147,22.45,108.2367,20.37,21.45,32.89,0,110.9,13.09,21.19,280.4
"2016-06-08 01:30:30",1703632,3.149,315.7,2.378,0.132,22.44,108.2218,20.33,21.44,33.18,0,110.9,13.09,21.15,277.7
"2016-06-08 01:31:00",1703633,3.244,314.2,2.072,0.071,22.47,108.2173,20.32,21.42,33.37,0,110.9,13.09,21.14,276.2
"2016-06-08 01:31:30",1703634,3.144,315.2,1.605,0.064,22.46,108.2185,20.32,21.4,33.39,0,110.9,13.09,21.14,277.2
"2016-06-08 01:32:00",1703635,3.158,316.6,2.359,0.137,22.51,108.2176,20.32,21.38,33.15,0,110.9,13.09,21.14,278.6
"2016-06-08 01:32:30",1703636,3.188,323.1,1.016,0.111,22.52,108.2194,20.32,21.37,32.46,0,110.9,13.09,21.15,285.1
"2016-06-08 01:33:00",1703637,3.392,319.9,3.679,0.097,22.48,108.2158,20.31,21.37,32.43,0,110.9,13.09,21.14,281.9
"2016-06-08 01:33:30",1703638,3.364,313.2,3.465,0.075,22.5,108.2088,20.3,21.37,33.15,0,110.9,13.09,21.12,275.2
"2016-06-08 01:34:00",1703639,3.471,319.1,1.86,0.158,22.49,108.19,20.25,21.35,32.52,0,110.9,13.09,21.07,281.1
"2016-06-08 01:34:30",1703640,3.192,320.5,2.315,0.169,22.49,108.1863,20.24,21.34,32.39,0,110.9,13.09,21.06,282.5
"2016-06-08 01:35:00",1703641,3.149,326.8,0.809,0.103,22.52,108.1866,20.24,21.32,31.91,0,110.9,13.09,21.06,288.8
"2016-06-08 01:35:30",1703642,3.255,326.6,2.842,0.084,22.5,108.189,20.24,21.3,31.35,0,110.9,13.09,21.07,288.6
"2016-06-08 01:36:00",1703643,3.181,326.2,1.663,0.152,22.54,108.1871,20.24,21.28,31.5,0,110.9,13.09,21.06,288.2
"2016-06-08 01:36:30",1703644,3.415,327.8,1.137,0.074,22.54,108.1838,20.23,21.27,31.09,0,110.9,13.09,21.05,289.8
"2016-06-08 01:37:00",1703645,3.442,327.7,1.882,0.06,22.55,108.1749,20.21,21.26,30.95,0,110.9,13.09,21.03,289.7
"2016-06-08 01:37:30",1703646,3.326,329.7,1.815,0.084,22.57,108.1658,20.19,21.26,31.01,0,110.9,13.1,21.01,291.7
"2016-06-08 01:38:00",1703647,3.282,330.8,1.263,0.088,22.54,108.1644,20.18,21.24,30.91,0,110.9,13.1,21.00,292.8
"2016-06-08 01:38:30",1703648,3.285,335.1,2.25,0.064,22.58,108.1647,20.18,21.24,31,0,110.9,13.1,21.00,297.1
"2016-06-08 01:39:00",1703649,3.178,337.7,2.432,0.085,22.55,108.1674,20.19,21.21,30.88,0,110.9,13.1,21.01,299.7
"2016-06-08 01:39:30",1703650,2.996,337.5,2.83,0.104,22.57,108.1674,20.19,21.22,30.63,0,110.9,13.1,21.01,299.5
"2016-06-08 01:40:00",1703651,2.929,343,1.09,0.102,22.6,108.1679,20.19,21.19,30.44,0,110.9,13.1,21.01,305.0
"2016-06-08 01:40:30",1703652,2.956,341.7,0.966,0.055,22.63,108.1628,20.18,21.19,30.3,0,110.9,13.1,21.00,303.7
"2016-06-08 01:41:00",1703653,2.805,338.6,3.657,0.093,22.52,108.1606,20.17,21.17,30.1,0,110.9,13.1,20.99,300.6
"2016-06-08 01:41:30",1703654,2.911,333.2,4.098,0.14,22.52,108.1526,20.15,21.18,30.32,0,110.9,13.1,20.97,295.2
"2016-06-08 01:42:00",1703655,3.014,329.6,3.406,0.215,22.52,108.1399,20.12,21.17,30.81,0,110.9,13.1,20.94,291.6
"2016-06-08 01:42:30",1703656,2.845,326.4,5.744,0.102,22.51,108.1394,20.12,21.17,31.05,0,110.9,13.1,20.94,288.4
"2016-06-08 01:43:00",1703657,2.696,331.2,4.406,0.113,22.49,108.1391,20.12,21.16,31.14,0,110.9,13.1,20.94,293.2
"2016-06-08 01:43:30",1703658,2.455,324.2,5.288,0.203,22.48,108.1391,20.12,21.15,31.2,0,110.9,13.1,20.94,286.2
"2016-06-08 01:44:00",1703659,2.396,331.1,5.069,0.168,22.51,108.1391,20.12,21.14,31.61,0,110.9,13.1,20.94,293.1
"2016-06-08 01:44:30",1703660,2.38,324.7,5.997,0.164,22.49,108.1388,20.12,21.13,31.49,0,110.9,13.1,20.94,286.7
"2016-06-08 01:45:00",1703661,2.372,325.4,2.643,0.116,22.49,108.1391,20.12,21.14,31.64,0,110.9,13.1,20.94,287.4
"2016-06-08 01:45:30",1703662,2.12,319.4,3.788,0.126,22.47,108.1391,20.12,21.11,31.76,0,110.9,13.1,20.94,281.4
"2016-06-08 01:46:00",1703663,1.927,325.6,3.206,0.092,22.47,108.1391,20.12,21.12,31.92,0,110.9,13.1,20.94,287.6
"2016-06-08 01:46:30",1703664,2.093,326,3.834,0.095,22.51,108.136,20.11,21.13,31.43,0,110.9,13.1,20.93,288.0
"2016-06-08 01:47:00",1703665,2.207,335.3,3.185,0.126,22.54,108.1296,20.09,21.12,30.88,0,110.9,13.11,20.91,297.3
"2016-06-08 01:47:30",1703666,2.303,340.5,3.324,0.062,22.62,108.1237,20.08,21.1,30.33,0,110.9,13.1,20.90,302.5